Nampa, ID

4:13 AM MST on December 06, 2019 (GMT -0700)
Nampa

Weather History for KMAN - October, 2019

Change the Weather History Date:

Thursday, October 10, 2019

  Actual Average (KBOI) Record (KBOI)
Temperature  
Mean Temperature 38 °F -  
Max Temperature 48 °F 67 °F 90 °F (2015)
Min Temperature 28 °F 42 °F 23 °F (2019)
Degree Days  
Heating Degree Days 27    
Moisture  
Dew Point 19 °F    
Average Humidity 52    
Maximum Humidity 75    
Minimum Humidity 27    
Precipitation  
Precipitation 0.00 in - - ()
Sea Level Pressure  
Sea Level Pressure 30.40 in    
Wind  
Wind Speed 8 mph (NW)    
Max Wind Speed 14 mph    
Max Gust Speed 16 mph    
Visibility 10 miles    
Events      
Averages and records for this station are not official NWS values.
T = Trace of Precipitation, MM = Missing Value Source: NWS Daily Summary

Daily Weather History Graph

Daily Weather History Graph

Search for Another Location

Airport or City:

Astronomy

Oct. 10, 2019 Rise Set
Actual Time 7:54 AM MDT 7:11 PM MDT
Civil Twilight 7:25 AM MDT 7:40 PM MDT
Nautical Twilight 6:52 AM MDT 8:13 PM MDT
Astronomical Twilight 6:18 AM MDT 8:46 PM MDT
Moon 6:22 PM MDT (10/10) 4:33 AM MDT (10/10)
Length of Visible Light 12h 14m
Length of Day
11h 17m
Waxing Gibbous, 91% of the Moon is Illuminated
Oct 10
Waxing Gibbous
Oct 13
Full
Oct 21
Last Quarter
Oct 27
New
Nov 4
First Quarter

Hourly Weather History & Observations

Time (MDT) Temp. Windchill Dew Point Humidity Pressure Visibility Wind Dir Wind Speed Gust Speed Precip Events Conditions
12:15 AM 33.8 °F 25.3 °F 23.0 °F 65% 30.32 in 10.0 mi WNW 11.5 mph - N/A   Clear
12:35 AM 33.8 °F 25.8 °F 21.2 °F 60% 30.32 in 10.0 mi WNW 10.4 mph - N/A   Clear
12:55 AM 33.8 °F 24.3 °F 21.2 °F 60% 30.33 in 10.0 mi WNW 13.8 mph - N/A   Clear
1:15 AM 33.8 °F 24.8 °F 21.2 °F 60% 30.33 in 10.0 mi NW 12.7 mph - N/A   Unknown
1:35 AM 33.8 °F 24.8 °F 21.2 °F 60% 30.33 in 10.0 mi NW 12.7 mph - N/A   Unknown
1:55 AM 33.8 °F 26.4 °F 21.2 °F 60% 30.34 in 10.0 mi WNW 9.2 mph - N/A   Unknown
2:15 AM 33.8 °F 26.4 °F 21.2 °F 60% 30.34 in 10.0 mi NW 9.2 mph 16.1 mph N/A   Unknown
2:35 AM 32.0 °F 24.2 °F 21.2 °F 64% 30.35 in 10.0 mi WNW 9.2 mph - N/A   Unknown
2:55 AM 32.0 °F 23.6 °F 21.2 °F 64% 30.36 in 10.0 mi WNW 10.4 mph - N/A   Partly Cloudy
3:15 AM 32.0 °F 23.6 °F 21.2 °F 64% 30.36 in 10.0 mi WNW 10.4 mph - N/A   Unknown
3:35 AM 32.0 °F 22.5 °F 19.4 °F 60% 30.36 in 10.0 mi WNW 12.7 mph - N/A   Unknown
3:55 AM 32.0 °F 23.0 °F 19.4 °F 60% 30.36 in 10.0 mi WNW 11.5 mph - N/A   Unknown
4:15 AM 32.0 °F 22.5 °F 19.4 °F 60% 30.36 in 10.0 mi WNW 12.7 mph - N/A   Unknown
4:35 AM 32.0 °F 23.6 °F 19.4 °F 60% 30.36 in 10.0 mi WNW 10.4 mph - N/A   Unknown
4:55 AM 30.2 °F 20.8 °F 19.4 °F 64% 30.37 in 10.0 mi WNW 11.5 mph - N/A   Unknown
5:15 AM 30.2 °F 21.3 °F 19.4 °F 64% 30.37 in 10.0 mi WNW 10.4 mph - N/A   Unknown
5:35 AM 30.2 °F 20.8 °F 19.4 °F 64% 30.38 in 10.0 mi WNW 11.5 mph - N/A   Clear
5:55 AM 30.2 °F 22.6 °F 19.4 °F 64% 30.38 in 10.0 mi NW 8.1 mph - N/A   Unknown
6:35 AM 30.2 °F 21.9 °F 19.4 °F 64% 30.39 in 10.0 mi NW 9.2 mph - N/A   Unknown
6:55 AM 30.2 °F 24.3 °F 19.4 °F 64% 30.40 in 10.0 mi WNW 5.8 mph 11.5 mph N/A   Unknown
7:15 AM 30.2 °F 24.3 °F 19.4 °F 64% 30.40 in 10.0 mi NW 5.8 mph - N/A   Unknown
7:35 AM 28.4 °F 22.2 °F 19.4 °F 69% 30.41 in 10.0 mi NNW 5.8 mph - N/A   Unknown
7:55 AM 28.4 °F 24.6 °F 17.6 °F 64% 30.42 in 10.0 mi NNW 3.5 mph - N/A   Unknown
8:15 AM 28.4 °F - 19.4 °F 69% 30.42 in 10.0 mi Calm Calm - N/A   Clear
8:35 AM 28.4 °F - 19.4 °F 69% 30.43 in 7.0 mi Calm Calm - N/A   Clear
9:35 AM 32.0 °F 27.5 °F 17.6 °F 55% 30.46 in 10.0 mi NW 4.6 mph - N/A   Clear
9:55 AM 32.0 °F 26.4 °F 19.4 °F 60% 30.46 in 10.0 mi NNW 5.8 mph - N/A   Clear
10:15 AM 33.8 °F 28.6 °F 19.4 °F 56% 30.46 in 10.0 mi NNW 5.8 mph - N/A   Clear
10:35 AM 35.6 °F 29.9 °F 19.4 °F 52% 30.47 in 10.0 mi NNW 6.9 mph - N/A   Clear
10:55 AM 35.6 °F 29.9 °F 19.4 °F 52% 30.47 in 10.0 mi NW 6.9 mph - N/A   Clear
11:15 AM 37.4 °F 31.4 °F 19.4 °F 48% 30.47 in 10.0 mi North 8.1 mph - N/A   Clear
11:35 AM 39.2 °F 35.0 °F 19.4 °F 45% 30.47 in 10.0 mi WNW 5.8 mph - N/A   Clear
11:55 AM 39.2 °F 37.0 °F 19.4 °F 45% 30.47 in 10.0 mi WNW 3.5 mph - N/A   Clear
12:15 PM 41.0 °F 35.8 °F 19.4 °F 42% 30.46 in 10.0 mi NW 8.1 mph - N/A   Clear
12:35 PM 41.0 °F 37.1 °F 19.4 °F 42% 30.46 in 10.0 mi NW 5.8 mph - N/A   Clear
1:15 PM 42.8 °F 39.3 °F 17.6 °F 36% 30.45 in 10.0 mi Variable 5.8 mph - N/A   Clear
1:35 PM 44.6 °F 43.1 °F 17.6 °F 34% 30.45 in 10.0 mi Variable 3.5 mph - N/A   Clear
1:55 PM 44.6 °F 40.7 °F 15.8 °F 31% 30.44 in 10.0 mi NNE 6.9 mph - N/A   Clear
2:15 PM 44.6 °F - 15.8 °F 31% 30.43 in 10.0 mi Calm Calm 11.5 mph N/A   Clear
2:35 PM 44.6 °F 41.4 °F 15.8 °F 31% 30.42 in 10.0 mi Variable 5.8 mph 11.5 mph N/A   Clear
2:55 PM 44.6 °F 40.7 °F 15.8 °F 31% 30.41 in 10.0 mi Variable 6.9 mph - N/A   Clear
3:55 PM 48.2 °F - 15.8 °F 27% 30.40 in 10.0 mi Variable 3.5 mph 11.5 mph N/A   Clear
4:15 PM 46.4 °F 41.9 °F 15.8 °F 29% 30.40 in 10.0 mi NW 9.2 mph - N/A   Clear
4:35 PM 46.4 °F 43.5 °F 15.8 °F 29% 30.40 in 10.0 mi NNW 5.8 mph - N/A   Clear
4:55 PM 48.2 °F - 15.8 °F 27% 30.39 in 10.0 mi WSW 5.8 mph - N/A   Clear
5:15 PM 48.2 °F - 15.8 °F 27% 30.39 in 10.0 mi Variable 4.6 mph - N/A   Clear
5:35 PM 46.4 °F 45.2 °F 14.0 °F 27% 30.39 in 10.0 mi Variable 3.5 mph - N/A   Clear
5:55 PM 46.4 °F - 14.0 °F 27% 30.39 in 10.0 mi Calm Calm - N/A   Clear
6:15 PM 46.4 °F 44.3 °F 14.0 °F 27% 30.39 in 10.0 mi NW 4.6 mph - N/A   Clear
6:35 PM 46.4 °F 43.5 °F 14.0 °F 27% 30.39 in 10.0 mi NW 5.8 mph - N/A   Clear
6:55 PM 46.4 °F 44.3 °F 14.0 °F 27% 30.39 in 10.0 mi North 4.6 mph - N/A   Clear
7:15 PM 44.6 °F - 15.8 °F 31% 30.39 in 10.0 mi Calm Calm - N/A   Clear
7:35 PM 41.0 °F - 17.6 °F 39% 30.39 in 10.0 mi Calm Calm - N/A   Clear
7:55 PM 39.2 °F - 19.4 °F 45% 30.39 in 10.0 mi Calm Calm - N/A   Clear
8:15 PM 37.4 °F - 21.2 °F 52% 30.39 in 10.0 mi Calm Calm - N/A   Unknown
8:35 PM 35.6 °F - 21.2 °F 56% 30.39 in 10.0 mi Calm Calm - N/A   Unknown
8:55 PM 35.6 °F - 21.2 °F 56% 30.39 in 10.0 mi Calm Calm - N/A   Unknown
9:15 PM 33.8 °F - 21.2 °F 60% 30.40 in 9.0 mi Calm Calm - N/A   Unknown
9:35 PM 32.0 °F - 21.2 °F 64% 30.40 in 10.0 mi Calm Calm - N/A   Unknown
9:55 PM 32.0 °F - 21.2 °F 64% 30.40 in 10.0 mi Calm Calm - N/A   Clear
10:15 PM 32.0 °F - 21.2 °F 64% 30.40 in 10.0 mi Calm Calm - N/A   Clear
10:35 PM 30.2 °F - 23.0 °F 75% 30.40 in 10.0 mi Calm Calm - N/A   Clear
10:55 PM 30.2 °F - 21.2 °F 69% 30.41 in 10.0 mi Calm Calm - N/A   Clear
11:15 PM 28.4 °F 23.3 °F 19.4 °F 69% 30.41 in 10.0 mi SE 4.6 mph - N/A   Unknown
11:35 PM 28.4 °F - 19.4 °F 69% 30.41 in 10.0 mi Calm Calm - N/A   Unknown
11:55 PM 28.4 °F 24.6 °F 19.4 °F 69% 30.41 in 10.0 mi SE 3.5 mph - N/A   Unknown